SCP
1 1 1 1 0 0 0 0 0 0 0 0 0 0 0 0 0 0 0 0 0 0 0 0 0 0 0 0 0 0 0 0 0 0 0 0 0 0 0 0 0 0 0 0 0 0 0 0 0
1 1 1 1 0 0 0 0 0 0 0 0 0 0 0 0 0 0 0 0 0 0 0 0 0 0 0 0 0 0 0 0 0 0 0 0 0 0 0 0 0 0 0 0 0 0 0 0 0
1 1 1 1 0 0 0 0 0 0 0 0 0 0 0 0 0 0 0 0 0 0 0 0 0 0 0 0 0 0 0 0 0 0 0 0 0 0 0 0 0 0 0 0 0 0 0 0 0
1 1 0 0 0 0 0 0 0 0 0 0 0 0 0 0 0 0 0 0 0 0 0 0 0 0 0 0 0 0 0 0 0 0 0 0 0 0 0 0 0 0 0 0 0 0 0 0 0
1 0 0 0 0 0 0 0 0 0 0 0 0 0 0 0 0 0 0 0 0 0 0 0 0 0 0 0 0 0 0 0 0 0 0 0 0 0 0 0 0 0 0 0 0 0 0 0 0
0 0 0 0 0 0 0 0 0 0 0 0 0 0 0 0 0 0 0 0 0 0 0 0 0 0 0 0 0 0 0 0 0 0 0 0 0 0 0 0 0 0 0 0 0 0 0 0 0
0 0 0 0 0 0 0 0 0 0 0 0 0 0 0 0 0 0 0 0 0 0 0 0 0 0 0 0 0 0 0 0 0 0 0 0 0 0 0 0 0 0 0 0 0 0 0 0 0
0 0 0 0 0 0 0 0 0 0 0 0 0 0 0 0 0 0 0 0 0 0 0 0 0 0 0 0 0 0 0 0 0 0 0 0 0 0 0 0 0 0 0 0 0 0 0 0 0
0 0 0 0 0 0 0 0 0 0 0 0 0 0 0 0 0 0 0 0 0 0 0 0 0 0 0 0 0 0 0 0 0 0 0 0 0 0 0 0 0 0 0 0 0 0 0 0 0
0 0 0 0 0 0 0 0 0 0 0 0 0 0 1 0 0 0 0 0 0 0 0 1 1 0 0 1 1 0 0 0 0 0 0 0 0 0 0 0 0 0 0 0 0 0 0 0 0
0 0 0 0 0 0 0 0 0 0 0 0 0 0 1 1 0 0 0 0 0 0 0 1 1 1 1 1 1 1 1 0 0 0 0 0 0 0 0 0 0 0 0 0 0 0 0 0 0
0 0 0 0 0 0 0 0 0 0 0 0 0 0 1 1 1 1 0 0 0 1 1 1 1 1 1 1 1 1 1 1 0 0 0 0 0 0 0 0 0 0 0 0 0 0 0 0 0
0 0 0 0 0 0 0 0 0 0 0 0 0 0 1 1 1 1 1 0 1 1 1 1 1 1 1 1 1 1 1 1 1 1 1 0 0 0 0 0 0 0 0 0 0 0 0 0 0
0 0 0 0 0 0 0 0 1 1 0 0 0 1 1 1 1 1 1 1 1 1 1 1 1 1 1 1 1 1 1 1 1 1 1 0 0 0 0 0 0 0 0 0 0 0 0 0 0
0 0 0 0 0 0 0 0 1 1 1 1 1 1 1 1 1 1 1 1 1 1 1 1 1 1 1 1 1 1 1 1 1 1 1 0 0 0 0 0 0 0 0 0 0 0 0 0 0
0 0 0 0 0 0 0 1 1 1 1 1 1 1 1 1 1 1 1 1 1 1 1 1 1 1 1 1 1 1 1 1 1 1 1 0 0 0 1 1 0 0 0 0 0 0 0 0 0
0 0 0 0 0 0 0 1 1 1 1 1 1 1 1 1 1 2 2 2 2 2 2 1 1 2 2 2 2 2 2 2 2 2 1 1 1 1 1 1 1 0 0 0 0 0 0 0 0
0 0 0 0 0 0 0 1 1 1 1 1 1 1 1 1 2 2 3 3 3 3 3 2 2 3 3 3 3 3 3 3 3 3 2 1 1 1 1 1 1 1 1 1 1 1 1 1 1
0 0 0 0 0 0 1 1 1 1 1 1 1 1 1 1 2 3 3 4 4 4 4 4 4 4 5 5 5 5 4 4 4 4 3 2 2 2 2 2 1 1 1 1 1 1 1 1 1
0 0 0 0 0 0 0 0 1 1 1 1 1 1 1 1 1 2 3 3 3 4 4 5 5 5 6 7 7 6 6 5 5 5 4 3 2 2 2 2 2 1 1 1 1 1 1 0 0
0 0 0 0 0 0 0 0 1 1 1 1 1 1 1 1 1 2 2 2 2 3 4 5 5 6 7 8 8 8 8 7 6 6 5 4 3 2 2 2 2 1 1 1 1 1 1 1 0
0 0 0 0 0 0 0 0 1 1 1 1 1 1 1 1 1 1 1 2 2 2 3 4 4 5 7 7 8 9 10 9 7 7 6 5 3 3 3 2 2 1 1 1 1 1 1 1 1
0 0 0 0 0 0 0 0 1 2 2 2 1 1 1 1 1 1 1 1 1 2 3 3 4 5 6 7 8 9 9 8 7 6 5 4 3 3 3 3 2 2 1 1 1 1 1 1 1
0 0 0 0 0 0 0 0 1 2 2 2 2 1 1 1 1 1 1 1 1 1 2 3 4 5 6 6 7 8 8 7 6 5 5 3 3 2 3 3 2 2 2 1 1 1 1 1 1
0 0 0 0 0 0 0 0 1 2 2 2 2 1 1 1 1 1 1 1 1 1 1 2 3 4 5 5 5 6 7 6 6 5 4 3 2 2 2 2 2 2 2 1 1 1 1 1 1
0 0 0 0 0 0 0 1 1 2 2 2 1 1 1 1 1 1 1 1 1 1 1 1 2 3 4 4 4 5 6 6 5 4 4 3 2 2 2 1 2 2 2 1 1 1 1 1 1
0 0 0 0 0 0 0 0 1 1 2 1 1 1 1 1 1 1 1 1 1 1 1 1 1 2 2 3 4 5 5 4 3 3 3 2 2 1 1 1 1 1 1 1 1 1 1 1 1
0 0 0 0 0 0 0 0 1 1 1 1 1 1 1 1 1 1 1 0 0 0 0 1 1 2 2 3 4 4 4 2 2 1 1 1 1 1 1 1 1 1 1 1 0 0 0 0 0
0 0 0 0 0 0 0 0 0 0 0 0 1 1 0 0 0 0 0 0 0 0 0 0 1 1 2 2 3 2 2 1 1 1 1 1 1 0 1 1 0 0 0 0 0 0 0 0 0
0 0 0 0 0 0 0 0 0 0 0 0 0 0 0 0 0 0 0 0 0 0 0 0 0 1 1 2 2 1 1 1 0 0 0 0 0 0 0 0 0 0 0 0 0 0 0 0 0
Wind_Speed
14 12 8 3 3 1 9 7 8 8 10 10 9 7 9 14 9 7 6 11 18 17 15 14 14 13 12 11 11 10 11 11 11 11 11 11 11 10 10 9 9 8 8 7 6 6 6 5 5
13 7 3 3 2 5 8 7 9 10 8 6 8 12 13 13 13 10 7 13 18 17 14 13 14 13 12 11 10 10 10 10 10 10 10 10 10 10 9 9 9 8 8 8 7 6 6 5 5
13 10 4 3 3 7 8 7 8 8 8 7 7 14 12 7 10 10 10 15 17 16 13 15 14 13 11 11 10 10 10 10 10 10 10 10 9 9 9 9 9 9 8 8 7 6 5 5 4
7 5 4 1 7 8 6 7 5 5 6 8 9 10 11 9 9 13 13 15 16 15 15 14 13 12 11 10 10 10 10 10 10 9 9 9 9 9 9 9 9 9 8 8 7 6 6 5 4
5 4 3 2 6 7 7 8 5 5 8 8 11 14 11 12 14 14 12 15 15 15 15 14 13 12 11 10 10 10 10 10 10 9 9 8 8 8 8 8 8 8 8 8 7 6 6 6 5
3 2 2 2 5 6 5 5 4 6 7 8 10 13 10 10 12 11 11 12 14 15 15 13 13 12 11 10 10 10 10 10 9 9 9 8 8 8 8 8 8 8 8 7 6 6 5 5 5
4 4 2 2 3 4 5 5 6 6 10 10 7 11 11 12 10 9 9 9 12 14 14 13 11 10 11 10 10 10 10 9 9 9 8 8 7 8 8 8 8 7 6 6 5 4 4 4 4
4 5 3 2 5 3 4 4 6 6 7 7 9 10 10 13 11 9 8 8 10 13 14 14 13 12 10 9 10 10 10 9 9 9 9 8 8 7 8 9 7 7 5 4 3 2 2 2 3
4 4 4 4 4 2 3 4 4 2 4 7 12 13 14 14 13 10 7 7 8 10 11 12 12 12 11 11 11 10 9 9 8 8 9 8 6 7 7 8 9 7 5 4 3 3 4 4 5
4 2 3 4 5 3 4 4 4 3 5 5 9 12 13 12 12 10 9 9 10 10 11 11 11 10 10 8 9 7 7 7 6 6 7 6 5 4 7 11 10 8 6 5 6 6 6 6 4
4 2 1 3 6 4 4 3 4 4 5 5 4 9 11 11 11 11 10 10 10 10 9 11 11 10 9 6 7 4 3 4 6 6 7 6 4 4 7 5 5 5 7 5 6 6 6 7 5
4 3 4 4 4 4 4 4 4 4 4 5 4 4 9 9 10 9 10 9 9 9 9 9 10 10 10 8 7 6 5 4 4 6 8 6 3 4 6 5 7 6 4 5 5 5 7 6 5
5 3 2 3 3 5 5 4 3 2 4 5 4 1 4 8 8 8 7 9 10 9 9 9 9 10 9 8 6 7 6 6 7 5 6 6 4 4 3 3 5 5 4 4 3 4 2 2 4
4 4 6 6 6 6 6 7 5 2 2 3 4 3 2 1 2 4 5 6 8 10 10 8 8 8 8 8 6 6 6 5 5 5 6 7 4 3 3 2 3 2 3 4 3 2 3 1 2
5 8 10 9 7 4 3 6 1 5 2 3 4 5 5 3 2 0 1 0 2 6 8 10 8 8 9 9 8 6 6 7 5 5 6 7 6 4 3 2 4 2 2 4 2 1 2 2 2
10 10 9 6 6 3 4 3 5 3 2 3 4 4 4 3 4 7 7 6 3 0 3 7 8 7 7 6 7 5 5 5 5 5 4 5 7 6 4 1 2 2 2 2 2 1 1 1 1
7 6 6 2 2 2 5 2 3 2 1 1 2 3 3 4 7 9 8 7 7 5 2 5 7 6 6 6 5 4 4 5 4 4 4 2 4 5 4 3 1 2 1 1 2 1 1 0 0
10 10 9 6 2 3 6 3 2 1 0 2 3 3 4 6 8 9 9 8 8 8 6 3 6 7 6 5 5 4 3 4 4 3 4 3 1 3 4 3 2 1 2 1 1 1 1 1 1
11 12 13 10 5 5 7 8 4 2 2 1 2 4 7 8 9 9 9 9 9 8 8 7 3 5 5 5 5 5 4 3 3 3 4 4 1 2 4 3 2 2 2 1 1 0 1 0 1
11 12 12 10 10 10 10 11 7 1 3 6 7 8 9 9 10 9 10 10 11 10 9 9 6 3 5 5 6 4 5 4 4 3 4 4 2 1 2 3 2 2 1 1 1 1 0 1 1
12 12 12 13 13 13 14 11 7 2 6 8 8 9 10 9 10 10 10 10 10 11 10 9 9 6 4 5 5 5 4 4 3 3 3 4 3 3 2 2 2 2 3 2 3 3 3 3 2
11 13 14 14 14 10 11 9 4 6 11 12 12 12 11 10 10 10 10 10 11 11 11 10 9 8 5 3 6 7 6 5 5 4 4 4 3 3 3 2 0 2 2 3 4 5 4 4 4
11 14 16 17 14 14 11 10 3 11 14 15 15 14 14 13 12 11 11 10 11 12 11 10 9 7 6 2 4 6 5 4 4 4 6 5 4 4 2 1 1 2 2 4 5 4 4 4 5
12 15 17 14 10 10 7 7 6 10 13 14 15 15 15 14 14 13 12 10 10 10 10 10 8 7 7 6 3 4 7 7 6 5 5 4 3 3 2 0 1 3 3 4 4 4 5 5 5
14 12 7 5 3 2 8 5 8 13 15 15 15 16 16 14 13 13 12 11 9 10 9 9 9 8 8 8 7 5 7 7 6 5 4 4 3 2 1 2 2 2 3 3 2 3 3 5 5
12 12 8 7 7 8 7 6 7 15 16 16 15 15 15 15 13 12 11 10 9 9 9 8 8 8 8 7 7 6 7 5 4 4 3 2 2 2 2 3 2 3 3 2 1 1 2 2 3
11 10 9 8 9 8 3 6 7 18 19 19 18 18 16 15 13 12 11 10 9 9 9 8 7 7 7 7 7 7 7 6 5 4 3 1 2 3 2 2 3 4 3 2 1 1 2 1 1
10 10 6 6 6 5 6 7 10 18 19 20 19 17 15 14 13 12 11 10 9 8 7 8 8 7 7 6 5 5 5 4 3 3 2 1 1 1 2 3 4 4 4 3 2 1 0 0 1
11 10 8 5 4 4 5 4 8 12 15 17 17 15 14 13 13 12 11 10 9 8 8 8 8 8 7 6 5 5 4 3 2 1 1 0 1 2 3 4 4 3 4 4 4 2 2 1 2
10 9 8 5 5 4 2 3 7 9 12 13 13 13 13 13 13 12 12 11 10 10 9 9 8 8 7 6 5 5 4 3 2 1 1 2 3 3 4 4 3 2 2 2 4 4 3 3 2
Wind_Direction
283 255 239 258 267 117 70 69 65 46 49 44 31 33 55 58 52 81 143 144 123 123 130 137 136 135 132 130 127 124 121 118 115 112 107 104 101 98 95 93 92 92 93 94 93 93 96 95 95
288 283 257 245 273 77 76 68 64 54 41 31 36 33 53 66 82 105 146 123 125 127 139 138 139 139 138 136 134 131 127 124 119 116 113 109 106 102 96 92 89 88 89 94 95 92 92 94 96
266 269 259 248 71 76 83 79 76 68 47 32 52 64 49 52 93 120 128 129 129 132 136 131 144 144 144 143 142 138 134 131 127 123 119 115 111 106 101 95 89 86 85 86 88 90 88 91 98
276 266 241 275 76 73 82 93 76 79 74 49 54 70 67 49 84 117 135 139 130 131 127 136 146 147 150 151 150 148 144 141 136 132 128 123 119 114 109 103 95 89 84 82 81 84 85 89 96
255 264 315 34 87 80 70 77 76 69 65 55 72 83 80 76 96 121 147 137 134 133 131 142 149 151 155 157 157 156 153 150 146 141 137 134 129 123 117 111 105 97 90 86 82 81 85 86 91
286 280 22 345 76 74 85 91 75 57 61 55 77 92 93 107 114 134 143 142 143 137 137 141 153 156 160 162 163 162 161 159 155 150 146 142 136 129 125 118 112 105 97 91 83 79 85 89 94
313 301 213 177 86 71 55 38 51 53 56 42 41 97 114 115 120 136 141 149 142 141 140 146 158 162 167 169 170 169 168 167 163 158 153 150 146 141 137 132 125 117 111 104 94 86 88 96 103
308 292 305 57 71 44 35 29 48 37 65 53 40 72 116 124 139 143 147 146 145 148 149 157 164 167 170 173 178 176 174 173 170 166 162 160 160 161 156 153 139 135 130 123 119 124 133 143 158
273 285 349 13 67 58 15 18 49 32 69 69 69 71 103 128 142 145 147 154 160 160 158 163 168 170 172 171 171 174 178 178 173 173 173 173 185 180 179 162 146 152 153 160 180 198 209 210 208
247 318 15 347 38 25 9 4 354 17 47 63 90 102 117 141 149 155 165 175 173 171 169 166 168 167 170 169 153 175 177 172 188 181 178 200 212 185 157 139 155 164 175 191 213 226 234 231 214
276 321 349 10 35 356 336 345 341 7 37 20 69 123 140 156 163 170 180 184 174 176 175 168 168 168 163 153 155 167 164 169 193 186 186 207 205 157 138 158 155 177 192 206 210 223 230 221 211
295 326 334 354 28 321 316 330 340 27 42 356 17 122 153 171 177 183 186 178 167 174 175 174 167 167 168 165 156 159 167 178 186 192 196 197 203 202 169 170 171 183 195 205 195 218 220 221 189
264 273 274 295 288 280 291 289 291 13 19 346 347 325 166 182 183 187 190 170 169 166 172 183 172 173 173 162 156 172 172 179 187 188 194 188 190 212 173 181 164 184 176 169 239 243 168 48 58
318 314 284 267 260 260 265 271 254 79 9 347 350 342 18 122 183 177 199 182 171 164 178 178 179 175 165 161 173 173 170 174 179 172 195 187 182 206 153 203 146 199 159 165 220 214 112 88 76
276 264 260 243 242 252 292 280 296 81 11 6 2 15 25 23 336 334 33 83 157 168 181 170 180 184 179 175 178 171 170 173 173 172 202 188 173 187 166 203 152 196 173 179 218 123 109 124 131
252 252 257 237 207 202 243 273 82 72 6 27 24 24 12 356 3 26 21 5 355 248 184 169 178 189 183 171 173 169 173 166 165 164 202 197 173 178 164 168 148 183 166 149 112 49 90 142 177
265 278 296 293 187 269 258 285 131 154 157 8 33 26 13 7 28 24 14 2 344 326 274 174 173 188 187 170 170 167 169 158 157 159 168 204 179 172 149 145 142 151 112 108 146 165 152 171 142
335 327 316 316 347 330 301 291 164 163 157 28 24 2 36 28 32 23 8 359 338 324 310 258 181 182 188 168 174 171 175 159 150 147 146 169 175 137 126 132 157 119 109 79 23 127 94 32 3
313 304 300 305 339 331 306 297 270 180 151 87 25 21 29 25 18 27 6 355 344 335 325 310 247 191 189 172 177 170 168 158 140 135 135 135 103 85 111 124 120 86 105 129 278 337 153 248 291
311 307 309 321 344 332 304 290 288 147 91 58 29 21 23 20 7 16 8 359 352 342 336 325 306 248 201 183 174 176 162 154 146 136 131 129 135 106 108 122 123 117 119 174 268 299 138 260 252
326 336 339 328 320 300 287 278 277 190 89 67 35 18 16 11 5 5 3 360 352 346 339 325 316 294 246 196 171 162 149 142 136 133 115 96 90 73 72 113 143 166 167 199 233 239 213 216 248
320 339 326 307 299 291 292 289 332 37 49 32 19 16 3 6 8 5 2 358 352 347 339 329 321 311 290 211 174 168 162 163 162 148 126 105 86 71 56 28 311 202 184 199 222 228 218 207 224
317 314 297 284 276 276 280 278 26 36 27 16 5 5 356 1 2 360 1 0 356 353 347 340 333 334 336 304 180 165 152 150 137 129 125 119 105 83 63 5 296 266 230 215 217 232 220 214 219
325 311 291 265 250 259 293 295 50 22 11 4 359 358 354 355 355 357 0 1 360 358 356 354 358 12 15 21 60 122 132 127 125 123 123 112 106 95 84 318 279 271 258 244 222 215 221 220 223
342 337 325 326 299 326 13 42 54 17 10 3 354 352 351 354 355 355 356 359 3 4 5 8 18 27 29 36 44 73 111 122 127 127 127 124 116 109 158 214 224 252 261 259 234 220 222 218 220
345 354 350 326 326 328 3 63 60 17 3 357 356 354 354 353 353 358 2 3 8 11 12 19 26 32 37 49 54 66 87 95 103 108 112 118 134 170 203 214 219 230 243 261 248 245 241 229 220
352 357 331 305 303 301 42 66 28 5 358 354 354 354 353 352 355 3 7 7 11 17 16 22 34 43 47 55 60 67 77 86 97 104 108 128 184 182 187 211 216 215 213 227 229 226 252 250 276
12 353 343 346 343 335 18 39 358 349 349 347 349 350 351 355 1 7 9 10 15 17 21 29 40 46 49 57 64 73 75 85 98 102 112 166 211 178 197 229 224 202 189 189 172 193 265 281 247
17 15 359 343 11 353 353 27 359 342 342 341 344 353 2 7 11 13 14 17 20 24 30 33 35 38 42 48 54 58 59 59 62 85 116 244 253 247 241 237 227 199 179 178 167 190 182 207 259
39 21 9 9 16 17 13 20 352 339 335 343 355 3 8 14 18 19 19 20 24 28 30 33 30 31 30 32 36 40 38 33 21 5 302 270 261 261 261 249 237 162 159 181 168 184 177 188 217